Location: Étouvelles
(49.5207°N, 3.5808°E)
Time: 23:04:51
(UTC+00:00)

Genesis I - Pass Details

Date: 03 February 2023
Orbit: 466 x 516 km, 64.5° (Epoch: 21 March)

Event Time Altitude Azimuth Distance (km) Brightness Sun altitude
Rises 18:54:10 0° 216° (SW) 2,639 7.3 -21.2°
Reaches altitude 10° 18:56:20 10° 215° (SW) 1,758 6.3 -21.6°
Enters shadow 19:00:06 78° 170° (S) 542 3.1 -22.2°
